SCP
0 0 0 0 0 0 0 0 0 0 0 0 0 0 0 0 0 0 0 0 0 0 0 0 0 0 0 0 0 0 0 1 1 1 1 2 2 2 1 1 1 1 1 1
0 0 0 0 0 0 0 0 0 0 0 0 0 0 0 0 0 0 0 0 0 0 0 0 0 0 0 0 0 0 0 1 1 1 1 1 1 1 1 1 1 1 1 1
0 0 0 0 0 0 0 0 0 0 0 0 0 0 0 0 0 0 0 0 0 0 0 0 0 0 0 0 0 0 0 0 1 1 1 1 1 1 1 1 1 1 1 1
0 0 0 0 0 0 0 0 0 0 0 0 0 0 0 0 0 0 0 0 0 0 0 0 0 0 0 0 0 0 0 0 0 1 1 1 1 1 1 1 2 1 1 1
0 0 0 0 0 0 0 0 0 0 0 0 0 0 0 0 0 0 0 0 0 0 0 0 0 0 0 0 0 0 0 0 0 0 0 1 1 1 1 1 1 1 1 1
0 0 0 0 0 0 0 0 0 0 0 0 0 0 0 0 0 0 0 0 0 0 0 0 0 0 0 0 0 0 0 0 0 0 0 0 0 0 1 1 1 1 1 1
0 0 0 0 0 0 0 0 0 0 0 0 0 0 0 0 0 0 0 0 0 0 0 0 0 0 0 0 0 0 0 0 0 0 0 0 0 0 0 0 0 0 0 0
0 0 0 0 0 0 0 0 0 0 0 0 0 0 0 0 0 0 0 0 0 0 0 0 0 0 0 0 0 0 0 0 0 0 0 0 0 0 0 0 0 0 0 0
0 0 0 0 0 0 0 0 0 0 0 0 0 0 0 0 0 0 0 0 0 0 0 0 0 0 0 0 0 0 0 0 0 0 0 0 0 0 0 0 0 0 0 0
0 0 0 0 0 0 0 0 0 0 0 0 0 0 0 0 0 0 0 0 0 0 0 0 0 0 0 0 0 0 0 0 0 0 0 0 0 0 0 0 0 0 0 0
0 0 0 0 0 0 0 0 0 0 0 0 0 0 0 0 0 0 0 0 0 0 0 0 0 0 0 0 0 0 0 0 0 0 0 0 0 0 0 0 0 0 0 0
0 0 0 0 0 0 0 0 0 0 0 0 0 0 0 0 0 0 0 0 0 0 0 0 0 0 0 0 0 0 0 0 0 0 0 0 0 0 0 0 0 0 0 0
0 0 0 0 0 0 0 0 0 0 0 0 0 0 0 0 0 0 0 0 0 0 0 0 0 0 0 0 0 0 0 0 0 0 0 0 0 0 0 0 0 0 0 0
0 0 0 0 0 0 0 0 0 0 0 0 0 0 0 0 0 0 0 0 0 0 0 0 0 0 0 0 0 0 0 0 0 0 0 0 0 0 0 0 0 0 0 0
0 0 0 0 0 0 0 0 0 0 0 0 0 0 0 0 0 0 0 0 0 0 0 0 0 0 0 0 0 0 0 0 0 0 0 0 0 0 0 0 0 0 0 0
0 0 0 0 0 0 0 0 0 0 0 0 0 0 0 0 0 0 0 0 0 0 0 0 0 0 0 0 0 0 0 0 0 0 0 0 0 0 0 0 0 0 0 0
0 0 0 0 0 0 0 0 0 0 0 0 0 0 0 0 0 0 0 0 0 0 0 0 0 0 0 0 0 0 0 0 0 0 0 0 0 0 0 0 0 0 0 0
0 0 0 0 0 0 0 0 0 0 0 0 0 0 0 0 0 0 0 0 0 0 0 0 0 0 0 0 0 0 0 0 0 0 0 0 0 0 0 0 0 0 0 0
0 0 0 0 0 0 0 0 0 0 0 0 0 0 0 0 0 0 0 0 0 0 0 0 0 0 0 0 0 0 0 0 0 0 0 0 0 0 0 0 0 0 0 0
0 0 0 0 0 0 0 0 0 0 0 0 0 0 0 0 0 0 0 0 0 0 0 0 0 0 0 0 0 0 0 0 0 0 0 0 0 0 0 0 0 0 0 0
0 0 0 0 0 0 0 0 0 0 0 0 0 0 0 0 0 0 0 0 0 0 0 0 0 0 0 0 0 0 0 0 0 0 0 0 0 0 0 0 0 0 0 0
0 0 0 0 0 0 0 0 0 0 0 0 0 0 0 0 0 0 0 0 0 0 0 0 0 0 0 0 0 0 0 0 0 0 0 0 0 0 0 0 0 0 0 0
0 0 0 0 0 0 0 0 0 0 0 0 0 0 0 0 0 0 0 0 0 0 0 0 0 0 0 0 0 0 0 0 0 0 0 0 0 0 0 0 0 0 0 0
0 0 0 0 0 0 0 0 0 0 0 0 0 0 0 0 0 0 0 0 0 0 0 0 0 0 0 0 0 0 0 0 0 0 0 0 0 0 0 0 0 0 0 0
0 0 0 0 0 0 0 0 0 0 0 0 0 0 0 0 0 0 0 0 0 0 0 0 0 0 0 0 0 0 0 0 0 0 0 0 0 0 0 0 0 0 0 0
0 0 0 1 1 1 0 0 0 0 0 0 0 0 0 0 0 0 0 0 0 0 0 0 0 0 0 0 0 0 0 0 0 0 0 0 0 0 0 0 0 0 0 0
0 0 1 1 1 1 0 0 0 0 0 0 0 0 0 0 0 0 0 0 0 0 0 0 0 0 0 0 0 0 0 0 0 0 0 0 0 0 0 0 0 0 0 0
Wind_Speed
4 3 1 2 2 4 6 7 9 12 13 12 10 12 13 14 15 16 16 16 16 16 16 16 16 16 16 17 16 17 17 17 17 16 16 16 16 16 16 15 16 15 16 16
2 2 1 1 0 3 5 8 11 12 11 10 11 13 14 15 16 16 17 18 18 18 18 17 17 17 17 17 17 17 17 17 17 17 16 16 15 15 15 15 15 15 15 16
1 2 6 4 1 4 7 10 11 12 13 14 15 15 16 16 15 16 18 19 19 19 18 17 18 17 17 17 17 16 17 17 17 17 16 16 16 15 15 15 15 15 15 15
3 3 5 6 3 4 9 11 9 9 12 14 15 16 16 12 12 16 18 18 18 18 18 18 18 17 17 17 17 17 17 17 16 16 16 15 15 15 15 13 13 12 14 15
5 6 3 5 1 5 10 11 5 8 13 15 15 16 11 11 14 16 17 17 17 17 18 18 17 17 17 18 17 17 17 17 16 15 15 15 15 15 13 12 12 12 12 13
5 7 5 4 4 3 7 4 6 10 13 15 16 14 12 16 17 16 17 16 16 17 18 17 17 16 17 17 17 17 16 15 15 15 14 14 14 13 12 11 11 10 11 11
6 6 1 6 3 4 7 9 10 11 12 13 13 13 15 17 16 16 17 17 17 17 16 16 16 16 17 17 17 17 16 15 14 14 13 13 12 11 10 10 10 10 10 10
4 5 2 5 2 5 8 7 9 10 11 12 13 15 15 16 16 17 17 17 17 16 15 15 15 15 16 17 17 16 15 15 14 13 12 11 10 9 9 8 8 8 8 9
3 3 4 0 3 4 5 7 8 9 11 12 14 14 15 15 16 16 16 16 16 16 16 16 15 15 16 16 16 15 15 14 13 13 11 10 9 9 8 7 6 6 6 6
4 3 1 2 3 3 4 6 7 8 10 11 13 14 15 15 15 15 15 15 15 16 16 16 16 15 15 15 15 14 14 13 12 11 10 9 7 6 5 5 5 5 5 5
7 4 3 3 2 2 3 4 6 7 9 10 12 13 14 14 14 14 14 14 14 14 15 16 16 15 15 15 14 14 13 12 11 10 9 8 6 4 5 4 3 5 4 4
4 1 3 1 1 1 3 4 5 7 9 10 11 13 14 14 13 13 14 14 14 15 15 16 16 15 14 14 13 13 11 10 8 8 7 6 6 4 2 4 3 4 5 5
2 1 1 2 2 1 2 3 4 6 8 10 10 11 13 13 13 14 14 15 15 15 15 15 15 15 14 14 13 12 11 10 8 8 7 6 5 5 4 2 4 5 5 5
4 3 3 3 2 2 2 3 4 6 7 8 10 11 12 13 13 14 14 14 15 15 14 14 15 14 14 14 13 12 11 9 9 7 6 5 4 4 4 3 2 1 4 5
8 7 4 2 3 3 2 3 5 6 7 8 9 10 12 13 14 14 14 14 14 14 14 14 14 14 14 14 13 12 9 8 8 7 6 5 5 4 4 4 3 2 0 3
9 8 6 6 5 4 4 4 5 6 7 9 10 11 12 12 13 13 13 13 14 14 14 14 14 14 14 13 12 9 7 8 9 7 6 5 5 4 3 3 3 2 2 0
11 10 10 8 6 5 4 4 4 6 7 8 10 11 11 12 13 13 13 13 13 13 12 13 14 14 13 12 11 8 8 7 7 6 6 6 5 4 4 3 3 3 2 2
10 7 7 6 6 5 3 3 3 4 6 7 9 10 11 12 13 13 14 14 13 13 12 14 15 15 13 12 10 8 7 7 6 6 5 6 6 5 4 4 4 4 3 3
9 8 7 6 5 5 4 3 3 3 5 6 8 9 10 10 11 12 12 13 12 13 14 15 17 13 12 12 12 6 6 6 6 5 5 4 4 5 5 5 4 4 3 3
10 9 8 8 7 6 5 3 3 3 4 5 7 9 10 10 11 11 12 10 8 10 13 14 14 11 12 11 13 6 6 6 6 5 5 5 5 5 5 6 6 5 5 5
10 10 10 9 8 7 6 4 4 3 3 5 6 8 9 10 10 10 10 9 10 12 14 12 10 10 10 11 11 6 6 6 6 5 5 5 5 5 6 6 6 6 5 5
9 10 11 10 9 8 6 6 5 4 4 4 6 7 8 9 9 9 8 7 9 12 11 8 9 12 15 13 7 7 7 6 5 5 5 5 5 5 5 6 5 5 5 5
7 9 10 10 9 8 7 6 6 5 4 4 5 6 7 7 7 7 7 7 9 12 10 7 12 16 17 8 6 6 7 7 6 5 5 5 5 5 5 6 6 6 6 6
7 8 8 8 8 8 8 8 6 5 4 4 4 4 5 5 5 5 6 7 8 10 8 7 11 15 12 6 6 6 6 6 6 6 6 5 5 5 6 6 6 6 7 8
7 8 9 9 10 8 8 8 7 7 6 4 3 2 3 3 4 5 6 8 8 8 7 6 7 11 8 7 6 6 6 6 7 6 5 5 5 6 6 6 6 6 7 7
8 8 8 9 8 6 6 6 6 5 4 3 2 1 1 2 3 4 4 6 8 7 6 6 7 7 7 7 7 7 6 5 5 5 6 5 6 6 6 6 8 6 6 6
9 9 8 8 9 8 7 6 6 5 4 4 3 1 0 1 2 3 4 5 5 5 5 5 5 6 6 6 6 6 6 6 5 5 5 5 5 5 5 6 5 5 6 7
Wind_Direction
50 56 54 79 51 22 13 354 333 333 326 341 347 333 327 325 324 323 324 324 324 322 320 318 315 313 310 309 308 305 301 296 293 290 286 281 277 274 271 267 260 255 252 246
152 130 223 224 296 340 348 339 331 322 329 358 335 326 326 326 324 323 325 325 324 322 321 318 316 313 312 309 308 305 301 298 296 294 290 286 281 277 274 269 264 260 254 249
275 157 255 221 138 329 334 334 327 324 336 337 328 330 328 323 322 326 326 325 323 322 320 318 315 315 312 309 307 302 299 297 295 293 290 288 284 280 276 272 268 262 255 250
299 254 279 71 62 333 318 320 325 323 330 332 329 327 317 320 335 329 325 323 323 321 319 317 318 316 312 309 307 304 300 296 295 294 292 291 288 283 279 274 268 263 256 249
295 293 288 138 152 336 323 316 347 332 328 329 329 315 316 3 343 328 325 323 321 320 319 319 318 318 315 310 308 306 303 301 302 300 297 294 289 286 282 276 269 261 255 250
283 297 309 89 71 357 290 295 33 336 329 330 326 320 335 346 334 329 327 323 322 321 320 319 320 319 313 311 310 309 309 307 304 299 296 292 290 289 284 280 275 265 254 248
283 284 333 88 74 278 303 358 351 333 329 326 328 320 322 327 329 327 324 323 323 323 321 320 319 317 313 312 312 315 314 309 304 300 296 291 288 286 283 278 273 264 260 252
274 281 55 100 295 320 342 337 327 328 328 327 322 320 324 326 327 327 326 326 327 324 321 320 321 319 316 316 319 318 314 310 306 302 297 295 293 289 284 277 271 264 259 253
303 358 68 124 305 340 329 316 325 328 330 326 322 325 327 327 327 326 326 327 326 324 321 321 324 324 320 320 320 319 315 312 310 306 299 295 292 288 284 275 266 261 253 249
245 232 225 252 267 282 299 312 323 325 326 326 325 326 327 327 326 327 328 327 326 325 322 323 325 325 321 319 319 316 314 313 311 309 306 305 298 290 283 276 268 260 255 252
242 252 249 218 243 287 299 304 312 322 328 328 326 326 328 325 327 329 326 326 326 325 324 324 325 324 324 323 321 317 315 315 314 311 310 309 306 303 298 297 291 277 280 268
261 177 272 1 119 240 284 303 319 324 325 329 330 328 327 326 328 326 326 327 327 326 326 325 325 325 327 327 325 323 321 320 318 316 316 314 314 310 263 270 271 255 268 282
249 178 257 105 155 208 276 307 318 320 323 326 330 330 328 326 327 327 327 330 329 327 325 325 326 328 332 332 330 327 324 323 322 322 320 318 320 319 314 252 222 232 243 248
184 186 199 208 205 197 268 302 310 312 322 328 330 330 329 328 328 330 331 330 328 326 326 329 330 332 335 332 330 329 326 327 325 327 327 327 326 326 323 320 300 229 204 216
198 208 222 168 175 189 236 277 298 314 330 332 332 334 334 331 330 329 330 331 329 327 331 334 334 335 336 332 330 329 332 337 338 335 333 336 335 336 340 337 327 319 276 158
193 200 202 200 209 216 240 275 300 321 331 331 334 336 334 330 328 329 333 335 332 332 334 337 337 336 334 333 331 330 336 340 331 332 338 342 347 352 358 354 345 352 1 46
189 198 206 214 217 223 243 277 303 320 326 331 334 332 331 331 331 335 336 336 331 330 337 342 339 336 334 336 336 333 334 339 328 334 356 358 1 0 2 2 11 20 29 45
205 206 196 201 208 207 220 247 278 305 320 328 326 330 333 333 334 334 333 331 331 336 348 348 343 335 336 342 339 333 336 341 350 357 4 7 3 11 18 20 27 34 36 67
197 192 183 180 180 187 203 230 265 298 319 323 325 329 329 331 333 332 331 330 336 343 347 343 335 335 342 345 338 335 345 346 351 0 9 11 7 23 29 31 36 43 49 52
195 190 185 180 181 190 199 213 241 275 306 318 320 324 329 335 336 333 330 330 351 350 337 334 333 343 343 343 335 341 353 354 356 3 12 19 25 29 34 38 42 45 51 58
202 196 192 191 192 197 204 211 230 262 293 307 315 323 328 331 334 334 331 334 350 352 338 329 339 348 343 334 323 346 0 3 7 11 19 26 29 30 36 43 50 52 52 59
215 208 203 199 199 202 203 209 223 246 272 294 308 319 324 328 333 333 333 341 342 348 336 340 351 347 337 326 342 358 3 6 12 19 25 29 34 36 39 44 52 56 57 59
229 219 213 207 205 207 205 212 220 234 258 284 303 315 324 328 329 329 331 348 342 338 330 350 347 338 331 335 357 360 5 9 12 21 28 31 37 41 43 48 52 53 54 61
243 229 221 213 205 205 211 216 214 223 241 260 280 304 310 314 321 336 336 333 339 332 332 355 344 336 331 353 3 4 10 10 9 16 24 28 36 41 41 41 48 50 53 61
250 234 220 210 208 212 213 211 208 211 228 242 258 269 290 314 324 332 331 332 342 333 335 353 347 338 349 5 8 8 12 12 3 2 20 23 33 43 44 42 45 47 48 53
255 242 227 217 219 220 210 205 209 207 218 236 245 249 300 323 324 324 326 332 344 339 341 352 356 353 3 5 8 10 13 14 7 11 21 23 30 40 45 45 47 45 50 54
254 241 228 222 215 212 207 204 210 208 207 218 234 222 255 318 328 336 339 341 346 350 356 358 359 1 6 7 10 11 11 13 15 14 17 23 28 33 41 45 44 42 45 58